Location: Sungai Dangang
(2.7500°N, 113.8333°E)
Time: 23:14:19
(UTC+00:00)

ATLAS 5 CENTAUR R/B - Pass Details

Date: 16 May 2021
Orbit: 516 x 1141 km, 63.3° (Epoch: 02 May)

Event Time Altitude Azimuth Distance (km) Brightness Sun altitude
Rises 12:27:55 0° 355° (N) 3,690 5.9 -28.7°
Reaches altitude 10° 12:30:41 10° 4° (N) 2,823 5.1 -29.3°
Enters shadow 12:34:26 28° 33° (NNE) 1,908 3.9 -30.2°
